Year,Month,Day,Hour,Minute,Value (Times are PST for temperature in C)
2008,07,17,00,00,12.70
2008,07,17,00,01,12.70
2008,07,17,00,02,12.70
2008,07,17,00,03,12.70
2008,07,17,00,04,12.70
2008,07,17,00,05,12.70
2008,07,17,00,06,12.70
2008,07,17,00,07,12.70
2008,07,17,00,08,12.70
2008,07,17,00,09,12.70
2008,07,17,00,10,12.70
2008,07,17,00,11,12.70
2008,07,17,00,12,12.70
2008,07,17,00,13,12.70
2008,07,17,00,14,12.70
2008,07,17,00,15,12.60
2008,07,17,00,16,12.60
2008,07,17,00,17,12.60
2008,07,17,00,18,12.60
2008,07,17,00,19,12.60
2008,07,17,00,20,12.60
2008,07,17,00,21,12.60
2008,07,17,00,22,12.60
2008,07,17,00,23,12.60
2008,07,17,00,24,12.50
2008,07,17,00,25,12.50
2008,07,17,00,26,12.50
2008,07,17,00,27,12.50
2008,07,17,00,28,12.40
2008,07,17,00,29,12.40
2008,07,17,00,30,12.40
2008,07,17,00,31,12.40
2008,07,17,00,32,12.40
2008,07,17,00,33,12.40
2008,07,17,00,34,12.40
2008,07,17,00,35,12.40
2008,07,17,00,36,12.40
2008,07,17,00,37,12.40
2008,07,17,00,38,12.40
2008,07,17,00,39,12.40
2008,07,17,00,40,12.40
2008,07,17,00,41,12.40
2008,07,17,00,42,12.40
2008,07,17,00,43,12.40
2008,07,17,00,44,12.40
2008,07,17,00,45,12.30
2008,07,17,00,46,12.30
2008,07,17,00,47,12.30
2008,07,17,00,48,12.30
2008,07,17,00,49,12.30
2008,07,17,00,50,12.30
2008,07,17,00,51,12.30
2008,07,17,00,52,12.30
2008,07,17,00,53,12.20
2008,07,17,00,54,12.20
2008,07,17,00,55,12.20
2008,07,17,00,56,12.20
2008,07,17,00,57,12.20
2008,07,17,00,58,12.20
2008,07,17,00,59,12.20
2008,07,17,01,00,12.10
2008,07,17,01,01,12.20
2008,07,17,01,02,12.20
2008,07,17,01,03,12.20
2008,07,17,01,04,12.20
2008,07,17,01,05,12.20
2008,07,17,01,06,12.10
2008,07,17,01,07,12.10
2008,07,17,01,08,12.10
2008,07,17,01,09,12.10
2008,07,17,01,10,12.10
2008,07,17,01,11,12.10
2008,07,17,01,12,12.10
2008,07,17,01,13,12.10
2008,07,17,01,14,12.00
2008,07,17,01,15,12.00
2008,07,17,01,16,12.00
2008,07,17,01,17,12.00
2008,07,17,01,18,12.00
2008,07,17,01,19,12.00
2008,07,17,01,20,12.00
2008,07,17,01,21,12.00
2008,07,17,01,22,12.00
2008,07,17,01,23,12.00
2008,07,17,01,24,12.00
2008,07,17,01,25,12.00
2008,07,17,01,26,12.00
2008,07,17,01,27,12.00
2008,07,17,01,28,11.90
2008,07,17,01,29,11.90
2008,07,17,01,30,11.90
2008,07,17,01,31,11.90
2008,07,17,01,32,11.90
2008,07,17,01,33,11.90
2008,07,17,01,34,11.90
2008,07,17,01,35,11.90
2008,07,17,01,36,11.90
2008,07,17,01,37,11.90
2008,07,17,01,38,11.90
2008,07,17,01,39,11.90
2008,07,17,01,40,11.90
2008,07,17,01,41,11.90
2008,07,17,01,42,11.90
2008,07,17,01,43,11.90
2008,07,17,01,44,11.90
2008,07,17,01,45,11.90
2008,07,17,01,46,11.90
2008,07,17,01,47,11.90
2008,07,17,01,48,11.90
2008,07,17,01,49,11.90
2008,07,17,01,50,11.90
2008,07,17,01,51,11.80
2008,07,17,01,52,11.80
2008,07,17,01,53,11.80
2008,07,17,01,54,11.80
2008,07,17,01,55,11.80
2008,07,17,01,56,11.80
2008,07,17,01,57,11.80
2008,07,17,01,58,11.80
2008,07,17,01,59,11.80
2008,07,17,02,00,11.80
2008,07,17,02,01,11.80
2008,07,17,02,02,11.80
2008,07,17,02,03,11.80
2008,07,17,02,04,11.80
2008,07,17,02,05,11.80
2008,07,17,02,06,11.80
2008,07,17,02,07,11.80
2008,07,17,02,08,11.80
2008,07,17,02,09,11.80
2008,07,17,02,10,11.70
2008,07,17,02,11,11.70
2008,07,17,02,12,11.70
2008,07,17,02,13,11.70
2008,07,17,02,14,11.70
2008,07,17,02,15,11.70
2008,07,17,02,16,11.70
2008,07,17,02,17,11.70
2008,07,17,02,18,11.60
2008,07,17,02,19,11.60
2008,07,17,02,20,11.60
2008,07,17,02,21,11.60
2008,07,17,02,22,11.60
2008,07,17,02,23,11.60
2008,07,17,02,24,11.60
2008,07,17,02,25,11.60
2008,07,17,02,26,11.50
2008,07,17,02,27,11.50
2008,07,17,02,28,11.50
2008,07,17,02,29,11.50
2008,07,17,02,30,11.40
2008,07,17,02,31,11.40
2008,07,17,02,32,11.40
2008,07,17,02,33,11.40
2008,07,17,02,34,11.40
2008,07,17,02,35,11.40
2008,07,17,02,36,11.40
2008,07,17,02,37,11.40
2008,07,17,02,38,11.40
2008,07,17,02,39,11.40
2008,07,17,02,40,11.40
2008,07,17,02,41,11.40
2008,07,17,02,42,11.40
2008,07,17,02,43,11.30
2008,07,17,02,44,11.30
2008,07,17,02,45,11.30
2008,07,17,02,46,11.30
2008,07,17,02,47,11.30
2008,07,17,02,48,11.30
2008,07,17,02,49,11.30
2008,07,17,02,50,11.30
2008,07,17,02,51,11.30
2008,07,17,02,52,11.30
2008,07,17,02,53,11.30
2008,07,17,02,54,11.30
2008,07,17,02,55,11.30
2008,07,17,02,56,11.20
2008,07,17,02,57,11.20
2008,07,17,02,58,11.20
2008,07,17,02,59,11.20
2008,07,17,03,00,11.20
2008,07,17,03,01,11.20
2008,07,17,03,02,11.20
2008,07,17,03,03,11.20
2008,07,17,03,04,11.20
2008,07,17,03,05,11.20
2008,07,17,03,06,11.20
2008,07,17,03,07,11.20
2008,07,17,03,08,11.10
2008,07,17,03,09,11.10
2008,07,17,03,10,11.10
2008,07,17,03,11,11.10
2008,07,17,03,12,11.10
2008,07,17,03,13,11.10
2008,07,17,03,14,11.10
2008,07,17,03,15,11.10
2008,07,17,03,16,11.10
2008,07,17,03,17,11.10
2008,07,17,03,18,11.10
2008,07,17,03,19,11.10
2008,07,17,03,20,11.10
2008,07,17,03,21,11.10
2008,07,17,03,22,11.10
2008,07,17,03,23,11.10
2008,07,17,03,24,11.10
2008,07,17,03,25,11.10
2008,07,17,03,26,11.10
2008,07,17,03,27,11.10
2008,07,17,03,28,11.10
2008,07,17,03,29,11.10
2008,07,17,03,30,11.10
2008,07,17,03,31,11.10
2008,07,17,03,32,11.10
2008,07,17,03,33,11.10
2008,07,17,03,34,11.10
2008,07,17,03,35,11.10
2008,07,17,03,36,11.10
2008,07,17,03,37,11.10
2008,07,17,03,38,11.10
2008,07,17,03,39,11.10
2008,07,17,03,40,11.10
2008,07,17,03,41,11.10
2008,07,17,03,42,11.10
2008,07,17,03,43,11.10
2008,07,17,03,44,11.10
2008,07,17,03,45,11.00
2008,07,17,03,46,11.00
2008,07,17,03,47,11.00
2008,07,17,03,48,11.00
2008,07,17,03,49,10.90
2008,07,17,03,50,10.90
2008,07,17,03,51,10.90
2008,07,17,03,52,10.90
2008,07,17,03,53,10.90
2008,07,17,03,54,10.90
2008,07,17,03,55,10.80
2008,07,17,03,56,10.80
2008,07,17,03,57,10.80
2008,07,17,03,58,10.80
2008,07,17,03,59,10.80
2008,07,17,04,00,10.80
2008,07,17,04,01,10.80
2008,07,17,04,02,10.80
2008,07,17,04,03,10.80
2008,07,17,04,04,10.70
2008,07,17,04,05,10.70
2008,07,17,04,06,10.70
2008,07,17,04,07,10.70
2008,07,17,04,08,10.70
2008,07,17,04,09,10.70
2008,07,17,04,10,10.70
2008,07,17,04,11,10.70
2008,07,17,04,12,10.60
2008,07,17,04,13,10.60
2008,07,17,04,14,10.60
2008,07,17,04,15,10.60
2008,07,17,04,16,10.60
2008,07,17,04,17,10.60
2008,07,17,04,18,10.60
2008,07,17,04,19,10.60
2008,07,17,04,20,10.60
2008,07,17,04,21,10.60
2008,07,17,04,22,10.60
2008,07,17,04,23,10.60
2008,07,17,04,24,10.60
2008,07,17,04,25,10.60
2008,07,17,04,26,10.60
2008,07,17,04,27,10.60
2008,07,17,04,28,10.60
2008,07,17,04,29,10.60
2008,07,17,04,30,10.60
2008,07,17,04,31,10.60
2008,07,17,04,32,10.60
2008,07,17,04,33,10.60
2008,07,17,04,34,10.60
2008,07,17,04,35,10.60
2008,07,17,04,36,10.60
2008,07,17,04,37,10.60
2008,07,17,04,38,10.50
2008,07,17,04,39,10.50
2008,07,17,04,40,10.50
2008,07,17,04,41,10.50
2008,07,17,04,42,10.50
2008,07,17,04,43,10.40
2008,07,17,04,44,10.40
2008,07,17,04,45,10.40
2008,07,17,04,46,10.50
2008,07,17,04,47,10.40
2008,07,17,04,48,10.50
2008,07,17,04,49,10.40
2008,07,17,04,50,10.40
2008,07,17,04,51,10.40
2008,07,17,04,52,10.40
2008,07,17,04,53,10.50
2008,07,17,04,54,10.50
2008,07,17,04,55,10.50
2008,07,17,04,56,10.50
2008,07,17,04,57,10.50
2008,07,17,04,58,10.50
2008,07,17,04,59,10.50
2008,07,17,05,00,10.50
2008,07,17,05,01,10.50
2008,07,17,05,02,10.50
2008,07,17,05,03,10.40
2008,07,17,05,04,10.40
2008,07,17,05,05,10.40
2008,07,17,05,06,10.40
2008,07,17,05,07,10.40
2008,07,17,05,08,10.40
2008,07,17,05,09,10.50
2008,07,17,05,10,10.50
2008,07,17,05,11,10.50
2008,07,17,05,12,10.60
2008,07,17,05,13,10.60
2008,07,17,05,14,10.60
2008,07,17,05,15,10.60
2008,07,17,05,16,10.60
2008,07,17,05,17,10.60
2008,07,17,05,18,10.70
2008,07,17,05,19,10.70
2008,07,17,05,20,10.70
2008,07,17,05,21,10.70
2008,07,17,05,22,10.70
2008,07,17,05,23,10.70
2008,07,17,05,24,10.70
2008,07,17,05,25,10.70
2008,07,17,05,26,10.70
2008,07,17,05,27,10.70
2008,07,17,05,28,10.70
2008,07,17,05,29,10.70
2008,07,17,05,30,10.70
2008,07,17,05,31,10.70
2008,07,17,05,32,10.70
2008,07,17,05,33,10.70
2008,07,17,05,34,10.70
2008,07,17,05,35,10.60
2008,07,17,05,36,10.60
2008,07,17,05,37,10.60
2008,07,17,05,38,10.60
2008,07,17,05,39,10.60
2008,07,17,05,40,10.60
2008,07,17,05,41,10.60
2008,07,17,05,42,10.60
2008,07,17,05,43,10.60
2008,07,17,05,44,10.50
2008,07,17,05,45,10.50
2008,07,17,05,46,10.50
2008,07,17,05,47,10.50
2008,07,17,05,48,10.50
2008,07,17,05,49,10.50
2008,07,17,05,50,10.50
2008,07,17,05,51,10.60
2008,07,17,05,52,10.60
2008,07,17,05,53,10.60
2008,07,17,05,54,10.70
2008,07,17,05,55,10.70
2008,07,17,05,56,10.70
2008,07,17,05,57,10.70
2008,07,17,05,58,10.70
2008,07,17,05,59,10.70
2008,07,17,06,00,10.70
2008,07,17,06,01,10.80
2008,07,17,06,02,10.80
2008,07,17,06,03,10.80
2008,07,17,06,04,10.90
2008,07,17,06,05,10.90
2008,07,17,06,06,10.90
2008,07,17,06,07,10.90
2008,07,17,06,08,11.00
2008,07,17,06,09,11.00
2008,07,17,06,10,11.10
2008,07,17,06,11,11.10
2008,07,17,06,12,11.10
2008,07,17,06,13,11.10
2008,07,17,06,14,11.20
2008,07,17,06,15,11.20
2008,07,17,06,16,11.20
2008,07,17,06,17,11.30
2008,07,17,06,18,11.30
2008,07,17,06,19,11.30
2008,07,17,06,20,11.40
2008,07,17,06,21,11.50
2008,07,17,06,22,11.60
2008,07,17,06,23,11.70
2008,07,17,06,24,11.80
2008,07,17,06,25,11.90
2008,07,17,06,26,12.00
2008,07,17,06,27,12.00
2008,07,17,06,28,12.10
2008,07,17,06,29,12.10
2008,07,17,06,30,12.20
2008,07,17,06,31,12.20
2008,07,17,06,32,12.20
2008,07,17,06,33,12.20
2008,07,17,06,34,12.20
2008,07,17,06,35,12.30
2008,07,17,06,36,12.30
2008,07,17,06,37,12.30
2008,07,17,06,38,12.30
2008,07,17,06,39,12.30
2008,07,17,06,40,12.30
2008,07,17,06,41,12.30
2008,07,17,06,42,12.20
2008,07,17,06,43,12.20
2008,07,17,06,44,12.10
2008,07,17,06,45,12.10
2008,07,17,06,46,12.10
2008,07,17,06,47,12.00
2008,07,17,06,48,12.00
2008,07,17,06,49,12.10
2008,07,17,06,50,12.10
2008,07,17,06,51,12.20
2008,07,17,06,52,12.20
2008,07,17,06,53,12.20
2008,07,17,06,54,12.20
2008,07,17,06,55,12.20
2008,07,17,06,56,12.20
2008,07,17,06,57,12.20
2008,07,17,06,58,12.20
2008,07,17,06,59,12.20
2008,07,17,07,00,12.20
2008,07,17,07,01,12.20
2008,07,17,07,02,12.20
2008,07,17,07,03,12.20
2008,07,17,07,04,12.20
2008,07,17,07,05,12.20
2008,07,17,07,06,12.10
2008,07,17,07,07,12.20
2008,07,17,07,08,12.20
2008,07,17,07,09,12.20
2008,07,17,07,10,12.20
2008,07,17,07,11,12.20
2008,07,17,07,12,12.20
2008,07,17,07,13,12.20
2008,07,17,07,14,12.20
2008,07,17,07,15,12.20
2008,07,17,07,16,12.20
2008,07,17,07,17,12.20
2008,07,17,07,18,12.20
2008,07,17,07,19,12.20
2008,07,17,07,20,12.20
2008,07,17,07,21,12.10
2008,07,17,07,22,12.10
2008,07,17,07,23,12.10
2008,07,17,07,24,12.10
2008,07,17,07,25,12.00
2008,07,17,07,26,12.00
2008,07,17,07,27,11.90
2008,07,17,07,28,11.90
2008,07,17,07,29,11.90
2008,07,17,07,30,12.00
2008,07,17,07,31,12.00
2008,07,17,07,32,12.00
2008,07,17,07,33,12.00
2008,07,17,07,34,12.00
2008,07,17,07,35,12.00
2008,07,17,07,36,12.00
2008,07,17,07,37,12.10
2008,07,17,07,38,12.10
2008,07,17,07,39,12.10
2008,07,17,07,40,12.10
2008,07,17,07,41,12.20
2008,07,17,07,42,12.20
2008,07,17,07,43,12.10
2008,07,17,07,44,12.20
2008,07,17,07,45,12.20
2008,07,17,07,46,12.20
2008,07,17,07,47,12.20
2008,07,17,07,48,12.20
2008,07,17,07,49,12.20
2008,07,17,07,50,12.20
2008,07,17,07,51,12.20
2008,07,17,07,52,12.20
2008,07,17,07,53,12.20
2008,07,17,07,54,12.20
2008,07,17,07,55,12.20
2008,07,17,07,56,12.30
2008,07,17,07,57,12.30
2008,07,17,07,58,12.30
2008,07,17,07,59,12.40
2008,07,17,08,00,12.40
2008,07,17,08,01,12.50
2008,07,17,08,02,12.60
2008,07,17,08,03,12.60
2008,07,17,08,04,12.70
2008,07,17,08,05,12.70
2008,07,17,08,06,12.70
2008,07,17,08,07,12.70
2008,07,17,08,08,12.80
2008,07,17,08,09,12.80
2008,07,17,08,10,12.80
2008,07,17,08,11,12.80
2008,07,17,08,12,12.70
2008,07,17,08,13,12.70
2008,07,17,08,14,12.60
2008,07,17,08,15,12.60
2008,07,17,08,16,12.60
2008,07,17,08,17,12.60
2008,07,17,08,18,12.60
2008,07,17,08,19,12.50
2008,07,17,08,20,12.50
2008,07,17,08,21,12.50
2008,07,17,08,22,12.50
2008,07,17,08,23,12.50
2008,07,17,08,24,12.50
2008,07,17,08,25,12.50
2008,07,17,08,26,12.50
2008,07,17,08,27,12.50
2008,07,17,08,28,12.50
2008,07,17,08,29,12.50
2008,07,17,08,30,12.50
2008,07,17,08,31,12.60
2008,07,17,08,32,12.60
2008,07,17,08,33,12.70
2008,07,17,08,34,12.70
2008,07,17,08,35,12.80
2008,07,17,08,36,12.90
2008,07,17,08,37,12.90
2008,07,17,08,38,12.90
2008,07,17,08,39,13.00
2008,07,17,08,40,12.90
2008,07,17,08,41,13.00
2008,07,17,08,42,13.00
2008,07,17,08,43,13.10
2008,07,17,08,44,13.10
2008,07,17,08,45,13.10
2008,07,17,08,46,13.10
2008,07,17,08,47,13.10
2008,07,17,08,48,13.10
2008,07,17,08,49,13.10
2008,07,17,08,50,13.10
2008,07,17,08,51,13.10
2008,07,17,08,52,13.10
2008,07,17,08,53,13.20
2008,07,17,08,54,13.20
2008,07,17,08,55,13.20
2008,07,17,08,56,13.20
2008,07,17,08,57,13.20
2008,07,17,08,58,13.20
2008,07,17,08,59,13.10
2008,07,17,09,00,13.10
2008,07,17,09,01,13.10
2008,07,17,09,02,13.20
2008,07,17,09,03,13.20
2008,07,17,09,04,13.10
2008,07,17,09,05,13.20
2008,07,17,09,06,13.20
2008,07,17,09,07,13.20
2008,07,17,09,08,13.30
2008,07,17,09,09,13.30
2008,07,17,09,10,13.30
2008,07,17,09,11,13.30
2008,07,17,09,12,13.20
2008,07,17,09,13,13.20
2008,07,17,09,14,13.20
2008,07,17,09,15,13.20
2008,07,17,09,16,13.30
2008,07,17,09,17,13.30
2008,07,17,09,18,13.30
2008,07,17,09,19,13.40
2008,07,17,09,20,13.50
2008,07,17,09,21,13.50
2008,07,17,09,22,13.60
2008,07,17,09,23,13.70
2008,07,17,09,24,13.70
2008,07,17,09,25,13.70
2008,07,17,09,26,13.70
2008,07,17,09,27,13.70
2008,07,17,09,28,13.70
2008,07,17,09,29,13.70
2008,07,17,09,30,13.70
2008,07,17,09,31,13.70
2008,07,17,09,32,13.70
2008,07,17,09,33,13.70
2008,07,17,09,34,13.70
2008,07,17,09,35,13.70
2008,07,17,09,36,13.60
2008,07,17,09,37,13.60
2008,07,17,09,38,13.70
2008,07,17,09,39,13.70
2008,07,17,09,40,13.80
2008,07,17,09,41,13.80
2008,07,17,09,42,13.90
2008,07,17,09,43,14.00
2008,07,17,09,44,14.10
2008,07,17,09,45,14.20
2008,07,17,09,46,14.20
2008,07,17,09,47,14.20
2008,07,17,09,48,14.20
2008,07,17,09,49,14.30
2008,07,17,09,50,14.30
2008,07,17,09,51,14.30
2008,07,17,09,52,14.30
2008,07,17,09,53,14.30
2008,07,17,09,54,14.30
2008,07,17,09,55,14.30
2008,07,17,09,56,14.30
2008,07,17,09,57,14.40
2008,07,17,09,58,14.40
2008,07,17,09,59,14.40
2008,07,17,10,00,14.30
2008,07,17,10,01,14.30
2008,07,17,10,02,14.20
2008,07,17,10,03,14.20
2008,07,17,10,04,14.20
2008,07,17,10,05,14.10
2008,07,17,10,06,14.10
2008,07,17,10,07,14.20
2008,07,17,10,08,14.20
2008,07,17,10,09,14.20
2008,07,17,10,10,14.10
2008,07,17,10,11,14.00
2008,07,17,10,12,14.00
2008,07,17,10,13,14.00
2008,07,17,10,14,13.90
2008,07,17,10,15,13.80
2008,07,17,10,16,13.80
2008,07,17,10,17,13.80
2008,07,17,10,18,13.90
2008,07,17,10,19,13.90
2008,07,17,10,20,14.00
2008,07,17,10,21,14.10
2008,07,17,10,22,14.20
2008,07,17,10,23,14.30
2008,07,17,10,24,14.50
2008,07,17,10,25,14.60
2008,07,17,10,26,14.80
2008,07,17,10,27,14.80
2008,07,17,10,28,14.80
2008,07,17,10,29,14.80
2008,07,17,10,30,14.80
2008,07,17,10,31,14.80
2008,07,17,10,32,14.80
2008,07,17,10,33,14.90
2008,07,17,10,34,15.00
2008,07,17,10,35,15.00
2008,07,17,10,36,15.20
2008,07,17,10,37,15.30
2008,07,17,10,38,15.30
2008,07,17,10,39,15.30
2008,07,17,10,40,15.30
2008,07,17,10,41,15.30
2008,07,17,10,42,15.30
2008,07,17,10,43,15.20
2008,07,17,10,44,15.10
2008,07,17,10,45,15.00
2008,07,17,10,46,15.00
2008,07,17,10,47,15.00
2008,07,17,10,48,15.00
2008,07,17,10,49,15.20
2008,07,17,10,50,15.30
2008,07,17,10,51,15.30
2008,07,17,10,52,15.40
2008,07,17,10,53,15.30
2008,07,17,10,54,15.30
2008,07,17,10,55,15.40
2008,07,17,10,56,15.40
2008,07,17,10,57,15.50
2008,07,17,10,58,15.40
2008,07,17,10,59,15.30
2008,07,17,11,00,15.20
2008,07,17,11,01,15.00
2008,07,17,11,02,15.00
2008,07,17,11,03,15.00
2008,07,17,11,04,15.00
2008,07,17,11,05,15.00
2008,07,17,11,06,15.00
2008,07,17,11,07,15.00
2008,07,17,11,08,15.00
2008,07,17,11,09,15.00
2008,07,17,11,10,14.80
2008,07,17,11,11,14.70
2008,07,17,11,12,14.80
2008,07,17,11,13,14.80
2008,07,17,11,14,14.70
2008,07,17,11,15,14.60
2008,07,17,11,16,14.60
2008,07,17,11,17,14.60
2008,07,17,11,18,14.60
2008,07,17,11,19,14.70
2008,07,17,11,20,14.70
2008,07,17,11,21,14.80
2008,07,17,11,22,14.70
2008,07,17,11,23,14.60
2008,07,17,11,24,14.40
2008,07,17,11,25,14.30
2008,07,17,11,26,14.30
2008,07,17,11,27,14.30
2008,07,17,11,28,14.20
2008,07,17,11,29,14.20
2008,07,17,11,30,14.30
2008,07,17,11,31,14.40
2008,07,17,11,32,14.50
2008,07,17,11,33,14.50
2008,07,17,11,34,14.60
2008,07,17,11,35,14.60
2008,07,17,11,36,14.70
2008,07,17,11,37,14.70
2008,07,17,11,38,14.70
2008,07,17,11,39,14.80
2008,07,17,11,40,14.80
2008,07,17,11,41,14.80
2008,07,17,11,42,14.90
2008,07,17,11,43,15.00
2008,07,17,11,44,15.00
2008,07,17,11,45,15.00
2008,07,17,11,46,15.00
2008,07,17,11,47,15.00
2008,07,17,11,48,15.00
2008,07,17,11,49,15.00
2008,07,17,11,50,15.00
2008,07,17,11,51,15.00
2008,07,17,11,52,14.90
2008,07,17,11,53,14.80
2008,07,17,11,54,14.60
2008,07,17,11,55,14.40
2008,07,17,11,56,14.30
2008,07,17,11,57,14.30
2008,07,17,11,58,14.30
2008,07,17,11,59,14.20
2008,07,17,12,00,14.20
2008,07,17,12,01,14.30
2008,07,17,12,02,14.20
2008,07,17,12,03,14.20
2008,07,17,12,04,14.10
2008,07,17,12,05,14.10
2008,07,17,12,06,14.00
2008,07,17,12,07,14.00
2008,07,17,12,08,14.00
2008,07,17,12,09,14.10
2008,07,17,12,10,14.30
2008,07,17,12,11,14.40
2008,07,17,12,12,14.60
2008,07,17,12,13,14.70
2008,07,17,12,14,14.80
2008,07,17,12,15,14.80
2008,07,17,12,16,14.80
2008,07,17,12,17,14.80
2008,07,17,12,18,14.90
2008,07,17,12,19,15.00
2008,07,17,12,20,15.00
2008,07,17,12,21,15.00
2008,07,17,12,22,15.00
2008,07,17,12,23,15.10
2008,07,17,12,24,15.30
2008,07,17,12,25,15.40
2008,07,17,12,26,15.40
2008,07,17,12,27,15.50
2008,07,17,12,28,15.50
2008,07,17,12,29,15.60
2008,07,17,12,30,15.70
2008,07,17,12,31,15.60
2008,07,17,12,32,15.60
2008,07,17,12,33,15.70
2008,07,17,12,34,15.70
2008,07,17,12,35,15.70
2008,07,17,12,36,15.60
2008,07,17,12,37,15.50
2008,07,17,12,38,15.40
2008,07,17,12,39,15.30
2008,07,17,12,40,15.30
2008,07,17,12,41,15.20
2008,07,17,12,42,15.10
2008,07,17,12,43,15.00
2008,07,17,12,44,15.00
2008,07,17,12,45,15.10
2008,07,17,12,46,15.10
2008,07,17,12,47,15.20
2008,07,17,12,48,15.20
2008,07,17,12,49,15.10
2008,07,17,12,50,15.00
2008,07,17,12,51,15.00
2008,07,17,12,52,14.90
2008,07,17,12,53,14.80
2008,07,17,12,54,14.80
2008,07,17,12,55,14.90
2008,07,17,12,56,15.00
2008,07,17,12,57,15.00
2008,07,17,12,58,15.00
2008,07,17,12,59,15.00
2008,07,17,13,00,15.00
2008,07,17,13,01,15.10
2008,07,17,13,02,15.10
2008,07,17,13,03,15.20
2008,07,17,13,04,15.20
2008,07,17,13,05,15.20
2008,07,17,13,06,15.20
2008,07,17,13,07,15.20
2008,07,17,13,08,15.20
2008,07,17,13,09,15.30
2008,07,17,13,10,15.30
2008,07,17,13,11,15.40
2008,07,17,13,12,15.50
2008,07,17,13,13,15.60
2008,07,17,13,14,15.70
2008,07,17,13,15,15.90
2008,07,17,13,16,16.10
2008,07,17,13,17,16.30
2008,07,17,13,18,16.50
2008,07,17,13,19,16.60
2008,07,17,13,20,16.60
2008,07,17,13,21,16.60
2008,07,17,13,22,16.60
2008,07,17,13,23,16.70
2008,07,17,13,24,16.60
2008,07,17,13,25,16.40
2008,07,17,13,26,16.30
2008,07,17,13,27,16.30
2008,07,17,13,28,16.20
2008,07,17,13,29,16.00
2008,07,17,13,30,16.00
2008,07,17,13,31,16.00
2008,07,17,13,32,16.00
2008,07,17,13,33,16.10
2008,07,17,13,34,16.00
2008,07,17,13,35,15.90
2008,07,17,13,36,15.90
2008,07,17,13,37,15.90
2008,07,17,13,38,16.00
2008,07,17,13,39,16.00
2008,07,17,13,40,16.10
2008,07,17,13,41,16.10
2008,07,17,13,42,16.10
2008,07,17,13,43,15.90
2008,07,17,13,44,15.80
2008,07,17,13,45,15.80
2008,07,17,13,46,15.70
2008,07,17,13,47,15.60
2008,07,17,13,48,15.30
2008,07,17,13,49,15.00
2008,07,17,13,50,14.90
2008,07,17,13,51,14.70
2008,07,17,13,52,14.50
2008,07,17,13,53,14.30
2008,07,17,13,54,14.10
2008,07,17,13,55,14.00
2008,07,17,13,56,14.00
2008,07,17,13,57,13.90
2008,07,17,13,58,13.90
2008,07,17,13,59,14.00
2008,07,17,14,00,14.10
2008,07,17,14,01,14.20
2008,07,17,14,02,14.20
2008,07,17,14,03,14.20
2008,07,17,14,04,14.00
2008,07,17,14,05,13.70
2008,07,17,14,06,13.50
2008,07,17,14,07,13.40
2008,07,17,14,08,13.50
2008,07,17,14,09,13.60
2008,07,17,14,10,13.60
2008,07,17,14,11,13.70
2008,07,17,14,12,13.70
2008,07,17,14,13,13.70
2008,07,17,14,14,13.80
2008,07,17,14,15,13.70
2008,07,17,14,16,13.70
2008,07,17,14,17,13.80
2008,07,17,14,18,13.70
2008,07,17,14,19,13.60
2008,07,17,14,20,13.60
2008,07,17,14,21,13.70
2008,07,17,14,22,13.70
2008,07,17,14,23,13.60
2008,07,17,14,24,13.50
2008,07,17,14,25,13.50
2008,07,17,14,26,13.50
2008,07,17,14,27,13.50
2008,07,17,14,28,13.40
2008,07,17,14,29,13.30
2008,07,17,14,30,13.30
2008,07,17,14,31,13.30
2008,07,17,14,32,13.30
2008,07,17,14,33,13.30
2008,07,17,14,34,13.50
2008,07,17,14,35,13.60
2008,07,17,14,36,13.50
2008,07,17,14,37,13.40
2008,07,17,14,38,13.40
2008,07,17,14,39,13.30
2008,07,17,14,40,13.40
2008,07,17,14,41,13.40
2008,07,17,14,42,13.40
2008,07,17,14,43,13.40
2008,07,17,14,44,13.50
2008,07,17,14,45,13.60
2008,07,17,14,46,13.70
2008,07,17,14,47,13.80
2008,07,17,14,48,14.00
2008,07,17,14,49,14.20
2008,07,17,14,50,14.30
2008,07,17,14,51,14.40
2008,07,17,14,52,14.40
2008,07,17,14,53,14.40
2008,07,17,14,54,14.30
2008,07,17,14,55,14.50
2008,07,17,14,56,14.70
2008,07,17,14,57,14.90
2008,07,17,14,58,15.00
2008,07,17,14,59,14.90
2008,07,17,15,00,14.80
2008,07,17,15,01,14.80
2008,07,17,15,02,14.80
2008,07,17,15,03,15.00
2008,07,17,15,04,15.00
2008,07,17,15,05,15.00
2008,07,17,15,06,14.90
2008,07,17,15,07,14.80
2008,07,17,15,08,14.80
2008,07,17,15,09,14.90
2008,07,17,15,10,15.00
2008,07,17,15,11,15.10
2008,07,17,15,12,15.30
2008,07,17,15,13,15.40
2008,07,17,15,14,15.60
2008,07,17,15,15,15.70
2008,07,17,15,16,15.70
2008,07,17,15,17,15.70
2008,07,17,15,18,15.70
2008,07,17,15,19,15.70
2008,07,17,15,20,15.80
2008,07,17,15,21,15.80
2008,07,17,15,22,15.80
2008,07,17,15,23,15.80
2008,07,17,15,24,15.90
2008,07,17,15,25,15.90
2008,07,17,15,26,16.00
2008,07,17,15,27,16.10
2008,07,17,15,28,16.30
2008,07,17,15,29,16.40
2008,07,17,15,30,16.60
2008,07,17,15,31,16.60
2008,07,17,15,32,16.60
2008,07,17,15,33,16.50
2008,07,17,15,34,16.40
2008,07,17,15,35,16.30
2008,07,17,15,36,16.30
2008,07,17,15,37,16.40
2008,07,17,15,38,16.40
2008,07,17,15,39,16.30
2008,07,17,15,40,16.30
2008,07,17,15,41,16.40
2008,07,17,15,42,16.60
2008,07,17,15,43,16.80
2008,07,17,15,44,17.00
2008,07,17,15,45,17.20
2008,07,17,15,46,17.30
2008,07,17,15,47,17.40
2008,07,17,15,48,17.40
2008,07,17,15,49,17.50
2008,07,17,15,50,17.60
2008,07,17,15,51,17.80
2008,07,17,15,52,17.90
2008,07,17,15,53,17.90
2008,07,17,15,54,17.80
2008,07,17,15,55,17.70
2008,07,17,15,56,17.60
2008,07,17,15,57,17.60
2008,07,17,15,58,17.50
2008,07,17,15,59,17.40
2008,07,17,16,00,17.20
2008,07,17,16,01,17.20
2008,07,17,16,02,17.20
2008,07,17,16,03,17.20
2008,07,17,16,04,17.20
2008,07,17,16,05,17.10
2008,07,17,16,06,17.10
2008,07,17,16,07,17.10
2008,07,17,16,08,17.10
2008,07,17,16,09,17.20
2008,07,17,16,10,17.30
2008,07,17,16,11,17.40
2008,07,17,16,12,17.50
2008,07,17,16,13,17.60
2008,07,17,16,14,17.80
2008,07,17,16,15,17.90
2008,07,17,16,16,18.00
2008,07,17,16,17,18.10
2008,07,17,16,18,18.20
2008,07,17,16,19,18.20
2008,07,17,16,20,18.10
2008,07,17,16,21,18.00
2008,07,17,16,22,17.90
2008,07,17,16,23,17.70
2008,07,17,16,24,17.50
2008,07,17,16,25,17.30
2008,07,17,16,26,17.20
2008,07,17,16,27,17.10
2008,07,17,16,28,17.10
2008,07,17,16,29,17.10
2008,07,17,16,30,17.10
2008,07,17,16,31,17.00
2008,07,17,16,32,17.00
2008,07,17,16,33,17.10
2008,07,17,16,34,17.10
2008,07,17,16,35,17.10
2008,07,17,16,36,17.10
2008,07,17,16,37,17.10
2008,07,17,16,38,17.10
2008,07,17,16,39,17.00
2008,07,17,16,40,17.00
2008,07,17,16,41,17.00
2008,07,17,16,42,16.90
2008,07,17,16,43,16.90
2008,07,17,16,44,16.80
2008,07,17,16,45,16.90
2008,07,17,16,46,17.00
2008,07,17,16,47,17.10
2008,07,17,16,48,17.10
2008,07,17,16,49,17.10
2008,07,17,16,50,17.10
2008,07,17,16,51,17.10
2008,07,17,16,52,17.00
2008,07,17,16,53,17.00
2008,07,17,16,54,16.90
2008,07,17,16,55,16.80
2008,07,17,16,56,16.70
2008,07,17,16,57,16.60
2008,07,17,16,58,16.60
2008,07,17,16,59,16.50
2008,07,17,17,00,16.40
2008,07,17,17,01,16.30
2008,07,17,17,02,16.10
2008,07,17,17,03,15.90
2008,07,17,17,04,15.70
2008,07,17,17,05,15.50
2008,07,17,17,06,15.30
2008,07,17,17,07,15.10
2008,07,17,17,08,15.00
2008,07,17,17,09,15.00
2008,07,17,17,10,15.00
2008,07,17,17,11,15.00
2008,07,17,17,12,15.00
2008,07,17,17,13,15.00
2008,07,17,17,14,14.90
2008,07,17,17,15,14.70
2008,07,17,17,16,14.50
2008,07,17,17,17,14.50
2008,07,17,17,18,14.40
2008,07,17,17,19,14.30